Regional Weather Roundup
Issued by NWS

Home | Current Version | Previous Version | Text Only | Print | Product List | Glossary Off
Versions: 1 2 3 4 5 6 7 8 9 10 11 12 13 14 15 16 17 18 19 20 21 22 23 24 25 26 27 28 29 30 31 32 33 34 35 36 37 38 39 40 41 42 43 44 45 46 47 48 49 50

000
ASUS44 KMEG 220710
RWRTN
TENNESSEE HOURLY STATE WEATHER ROUNDUP
NATIONAL WEATHER SERVICE MEMPHIS TN
200 AM CDT TUE JUL 22 2014

TNZ002-004-019-021-049-052-054-088>092-220800-
WEST TENNESSEE

CITY           SKY/WX    TMP DP  RH WIND       PRES   REMARKS
MEMPHIS INTL   CLEAR     75  65  70 CALM      30.07R
NWS MEMPHIS      N/A     68 N/A N/A MISG        N/A
JACKSON        CLEAR     67  65  93 CALM      30.06S FOG
DYERSBURG      CLEAR     68  59  73 CALM      30.07S
UNION CITY     CLEAR     66  66 100 CALM      30.06S
PARIS          CLEAR     67  63  87 CALM      30.07S
LEXINGTON      CLEAR     68  66  94 CALM      30.05S
SAVANNAH       CLEAR     69  69 100 CALM      30.06S
$$

TNZ008-025-027-028-033-062-065-066-220800-
NORTH MIDDLE TENNESSEE

CITY           SKY/WX    TMP DP  RH WIND       PRES   REMARKS
NASHVILLE      PTCLDY    74  71  91 CALM      30.07S
DICKSON        CLEAR     68  66  94 CALM      30.07S
PORTLAND       CLEAR     72  70  94 CALM      30.07S
CLARKSVILLE    CLEAR     70  66  87 CALM      30.06S
LEBANON        CLEAR     71  69  93 CALM      30.06S
SMYRNA         PTCLDY    72  72 100 CALM      30.08R
MURFREESBORO   CLEAR     73  70  91 CALM      30.07S
COOKEVILLE     CLEAR     70  68  94 CALM      30.10S
LIVINGSTON     CLEAR     72  69  90 SW3       30.11
GALLATIN       CLEAR     72  72 100 SE3       30.08S
CROSSVILLE     CLEAR     68  65  90 CALM      30.14F
$$

TNZ061-075-076-078-094-096-097-220800-
SOUTH MIDDLE TENNESSEE

CITY           SKY/WX    TMP DP  RH WIND       PRES   REMARKS
LEWISBURG      PTCLDY    69  67  93 CALM      30.07S
FAYETTEVILLE   PTCLDY    72  72 100 E9        30.08S
TULLAHOMA      CLEAR     72  70  94 CALM      30.11R
WINCHESTER     CLEAR     70  70 100 CALM      30.09F
MCMINNVILLE    CLEAR     70  70 100 CALM      30.10S
COLUMBIA       MOCLDY    72  72 100 CALM      30.06S
SHELBYVILLE    CLOUDY    73  72  94 CALM      30.09S
$$

TNZ017-018-042-046-047-220800-
NORTHEAST TENNESSEE

CITY           SKY/WX    TMP DP  RH WIND       PRES   REMARKS
TRI CITIES     MOCLDY    68  65  90 CALM      30.14F
ELIZABETHTON   SUNNY     66  64  94 E5        30.15F
$$

TNZ012-013-036-069-073-074-220800-
CENTRAL EAST TENNESSEE

CITY           SKY/WX    TMP DP  RH WIND       PRES   REMARKS
KNOXVILLE      CLOUDY    73  71  93 CALM      30.09S
OAK RIDGE      PTCLDY    74  71  91 CALM      30.10F
GATLINBURG     SUNNY     70  68  94 CALM      30.10S
MORRISTOWN     SUNNY     72  64  78 E5        30.12F
$$

TNZ083-085-099-220800-
SOUTHEAST TENNESSEE

CITY           SKY/WX    TMP DP  RH WIND       PRES   REMARKS
CHATTANOOGA    MOCLDY    74  70  87 CALM      30.09F
$$

SKY/WX REPORTED AS FAIR MEANS FEW OR NO CLOUDS BELOW
12 THOUSAND FEET.



USA.gov is the U.S. government's official web portal to all federal, state and local government web resources and services.